Location: Passo di Treia
(43.2833°N, 13.3333°E)
Time: 17:39:58
(UTC+00:00)

BREEZE-M DEB (TANK) - Pass Details

Date: 09 December 2019
Orbit: 436 x 13847 km, 45.9° (Epoch: 23 January)

Event Time Altitude Azimuth Distance (km) Brightness Sun altitude
Rises 17:47:06 0° 284° (WNW) 3,449 7.5 -23.9°
Reaches altitude 10° 17:50:07 10° 287° (WNW) 1,944 5.9 -24.5°
Enters shadow 17:52:41 39° 300° (WNW) 721 3.2 -25.0°
